Orbital Elements
Epoch 2001 Apr. 1.0 TT = JDT 2452000.5
T 2001 Apr. 14.99634 TT Muraoka
q 2.6109320 (2000.0) P Q
n 0.09362345 Peri. 229.71415 +0.56116677 -0.82697813
a 4.8033727 Node 186.43822 +0.82170068 +0.56163874
e 0.4564378 Incl. 17.98731 +0.09949798 +0.02586695
P 10.53
From 138 observations 1906-2000, mean residual 1".14. Nongravitational
parameters A1 = +0.49 +/- 0.03, A2 = +0.0604 +/- 0.0003.
|